sat.trackr.live / text

‹ back to catalog

STARLINK-32614

NORAD 62428 · 2024-249V

PAYLOAD ACTIVE UNKNOWN

§ Identity

Operator
Country
US
Launch date
2024-12-23
Launch site
AFETR
Launch vehicle
Mass (kg)
RCS (m²)

Purposes: comms

External: N2YO · Heavens-Above · Gunter

§ Orbital elements

Epoch: 2026-05-25T00:09:05.311008Z

Period
94.27 min
Inclination
42.9997°
Eccentricity
0.0001770
Mean motion
15.27586892 rev/d
Perigee alt
481.8 km
Apogee alt
484.2 km
Semi-major
6,861.2 km
B*
6.0614e-4
RAAN
251.0059°
Arg perigee
274.7192°
Mean anomaly
85.3457°
Rev number
7,939

§ Raw data

STARLINK-326141 62428U 24249V   26145.00631147  .00016458  00000+0  60614-3 0  99962 62428  42.9997 251.0059 0001770 274.7192  85.3457 15.27586892 79396

JSON: /api/v1/satellites/62428 · /tle

For live sub-satellite position, see the globe view (requires WebGL).

§ Visibility from observer

Set your observer location to see the next 7 days of passes ≥ 10°. The values pass through the URL so the page stays shareable.

No JS? Fill the form by hand. The geolocation button needs JavaScript.